Torna al catalogo

COSMOS 886 DEB

AttivoUNKNOWN
NORAD 9965·DEBRIS·🇷🇺 Russia

Lanciato Dec 27, 1976 da Baikonur Cosmodrome

Loading…

Prossimi Passaggi (prossime 24 ore)

TLE

AggiornatoSource: Space-Track

Epoca: Sep 14, 2026, 04:47 UTC

1 09965U 76126BF  26257.19973333 -.00000632  00000-0 -17744-2 0  9999
2 09965  65.7956 168.9766 0886539 224.3567 297.4101 12.13575183179029

Traccia COSMOS 886 DEB in tempo reale con AllMySat

Download on the App Store